Time,TemperatureF,DewpointF,PressureIn,WindDirection,WindDirectionDegrees,WindSpeedMPH,WindSpeedGustMPH,Humidity,HourlyPrecipIn,Conditions,Clouds,dailyrainin,SoftwareType,DateUTC
2013-03-09 00:00:00,35.2,27.7,30.46,North,5,0.0,1.0,74,0.00,,,0.00,Wunderground v.1.15,2013-03-09 05:00:00,
2013-03-09 00:01:00,35.2,27.7,30.46,North,5,0.0,1.0,74,0.00,,,0.00,Wunderground v.1.15,2013-03-09 05:01:00,
2013-03-09 00:03:00,35.1,27.6,30.46,North,5,0.0,1.0,74,0.00,,,0.00,Wunderground v.1.15,2013-03-09 05:03:00,
2013-03-09 00:07:00,34.9,27.8,30.46,North,5,0.0,1.0,75,0.00,,,0.00,Wunderground v.1.15,2013-03-09 05:07:00,
2013-03-09 00:13:00,34.6,27.5,30.46,North,5,0.0,0.0,75,0.00,,,0.00,Wunderground v.1.15,2013-03-09 05:13:00,
2013-03-09 00:18:00,34.2,27.4,30.46,North,5,0.0,0.0,76,0.00,,,0.00,Wunderground v.1.15,2013-03-09 05:18:00,
2013-03-09 00:23:00,34.0,27.5,30.47,North,5,0.0,0.0,77,0.00,,,0.00,Wunderground v.1.15,2013-03-09 05:23:00,
2013-03-09 00:29:00,33.6,27.5,30.47,North,5,0.0,0.0,78,0.00,,,0.00,Wunderground v.1.15,2013-03-09 05:29:00,
2013-03-09 00:34:00,33.2,26.8,30.47,North,5,0.0,0.0,77,0.00,,,0.00,Wunderground v.1.15,2013-03-09 05:34:00,
2013-03-09 00:39:00,32.8,27.0,30.47,North,5,0.0,0.0,79,0.00,,,0.00,Wunderground v.1.15,2013-03-09 05:39:00,
2013-03-09 00:44:00,32.3,26.8,30.47,North,5,1.0,1.0,80,0.00,,,0.00,Wunderground v.1.15,2013-03-09 05:44:00,
2013-03-09 00:49:00,31.8,26.6,30.46,North,5,0.0,0.0,81,0.00,,,0.00,Wunderground v.1.15,2013-03-09 05:49:00,
2013-03-09 00:55:00,31.5,26.3,30.46,North,5,0.0,0.0,81,0.00,,,0.00,Wunderground v.1.15,2013-03-09 05:55:00,
2013-03-09 01:00:00,31.4,26.2,30.46,North,5,0.0,0.0,81,0.00,,,0.00,Wunderground v.1.15,2013-03-09 06:00:00,
2013-03-09 01:06:00,31.0,26.1,30.46,North,5,0.0,0.0,82,0.00,,,0.00,Wunderground v.1.15,2013-03-09 06:06:00,
2013-03-09 01:12:00,30.7,25.9,30.45,North,5,0.0,0.0,82,0.00,,,0.00,Wunderground v.1.15,2013-03-09 06:12:00,
2013-03-09 01:17:00,30.5,26.2,30.46,North,5,0.0,0.0,84,0.00,,,0.00,Wunderground v.1.15,2013-03-09 06:17:00,
2013-03-09 01:22:00,30.2,25.9,30.46,North,5,0.0,0.0,84,0.00,,,0.00,Wunderground v.1.15,2013-03-09 06:22:00,
2013-03-09 01:27:00,30.0,25.5,30.46,North,5,0.0,0.0,83,0.00,,,0.00,Wunderground v.1.15,2013-03-09 06:27:00,
2013-03-09 01:32:00,29.7,25.2,30.46,North,5,0.0,0.0,83,0.00,,,0.00,Wunderground v.1.15,2013-03-09 06:32:00,
2013-03-09 01:38:00,29.6,25.4,30.46,North,5,0.0,0.0,84,0.00,,,0.00,Wunderground v.1.15,2013-03-09 06:38:00,
2013-03-09 01:43:00,29.4,25.4,30.46,North,5,0.0,0.0,85,0.00,,,0.00,Wunderground v.1.15,2013-03-09 06:43:00,
2013-03-09 01:48:00,29.3,25.4,30.46,North,5,0.0,0.0,85,0.00,,,0.00,Wunderground v.1.15,2013-03-09 06:48:00,
2013-03-09 01:54:00,29.1,25.2,30.46,North,5,0.0,0.0,85,0.00,,,0.00,Wunderground v.1.15,2013-03-09 06:54:00,
2013-03-09 02:00:00,28.9,25.0,30.46,North,5,0.0,0.0,85,0.00,,,0.00,Wunderground v.1.15,2013-03-09 07:00:00,
2013-03-09 02:05:00,28.8,25.1,30.46,North,5,0.0,0.0,86,0.00,,,0.00,Wunderground v.1.15,2013-03-09 07:05:00,
2013-03-09 02:10:00,28.7,25.0,30.46,North,5,0.0,0.0,86,0.00,,,0.00,Wunderground v.1.15,2013-03-09 07:10:00,
2013-03-09 02:14:00,28.6,24.9,30.46,North,5,0.0,0.0,86,0.00,,,0.00,Wunderground v.1.15,2013-03-09 07:14:00,
2013-03-09 02:19:00,28.5,24.8,30.46,North,5,0.0,0.0,86,0.00,,,0.00,Wunderground v.1.15,2013-03-09 07:19:00,
2013-03-09 02:25:00,28.4,24.7,30.46,North,5,0.0,0.0,86,0.00,,,0.00,Wunderground v.1.15,2013-03-09 07:25:00,
2013-03-09 02:30:00,28.2,24.8,30.46,North,5,0.0,0.0,87,0.00,,,0.00,Wunderground v.1.15,2013-03-09 07:30:00,
2013-03-09 02:35:00,27.9,24.5,30.45,North,5,0.0,0.0,87,0.00,,,0.00,Wunderground v.1.15,2013-03-09 07:35:00,
2013-03-09 02:40:00,27.7,24.3,30.45,North,5,0.0,0.0,87,0.00,,,0.00,Wunderground v.1.15,2013-03-09 07:40:00,
2013-03-09 02:45:00,27.6,24.2,30.45,North,5,0.0,0.0,87,0.00,,,0.00,Wunderground v.1.15,2013-03-09 07:45:00,
2013-03-09 02:50:00,27.4,24.3,30.45,North,5,0.0,0.0,88,0.00,,,0.00,Wunderground v.1.15,2013-03-09 07:50:00,
2013-03-09 02:55:00,27.3,24.2,30.45,North,5,0.0,0.0,88,0.00,,,0.00,Wunderground v.1.15,2013-03-09 07:55:00,
2013-03-09 03:00:00,27.2,24.1,30.45,North,5,0.0,0.0,88,0.00,,,0.00,Wunderground v.1.15,2013-03-09 08:00:00,
2013-03-09 03:05:00,27.1,24.0,30.45,North,5,0.0,0.0,88,0.00,,,0.00,Wunderground v.1.15,2013-03-09 08:05:00,
2013-03-09 03:10:00,27.0,24.2,30.45,North,5,0.0,0.0,89,0.00,,,0.00,Wunderground v.1.15,2013-03-09 08:10:00,
2013-03-09 03:15:00,26.9,24.1,30.45,North,5,0.0,0.0,89,0.00,,,0.00,Wunderground v.1.15,2013-03-09 08:15:00,
2013-03-09 03:20:00,26.8,24.0,30.44,North,5,0.0,0.0,89,0.00,,,0.00,Wunderground v.1.15,2013-03-09 08:20:00,
2013-03-09 03:25:00,26.7,24.2,30.44,North,5,0.0,0.0,90,0.00,,,0.00,Wunderground v.1.15,2013-03-09 08:25:00,
2013-03-09 03:30:00,26.7,24.2,30.44,North,5,0.0,0.0,90,0.00,,,0.00,Wunderground v.1.15,2013-03-09 08:30:00,
2013-03-09 03:35:00,26.6,24.1,30.44,North,5,0.0,0.0,90,0.00,,,0.00,Wunderground v.1.15,2013-03-09 08:35:00,
2013-03-09 03:40:00,26.5,24.0,30.44,North,5,0.0,0.0,90,0.00,,,0.00,Wunderground v.1.15,2013-03-09 08:40:00,
2013-03-09 03:45:00,26.5,24.2,30.44,North,5,0.0,0.0,91,0.00,,,0.00,Wunderground v.1.15,2013-03-09 08:45:00,
2013-03-09 03:50:00,26.4,24.1,30.44,North,5,0.0,0.0,91,0.00,,,0.00,Wunderground v.1.15,2013-03-09 08:50:00,
2013-03-09 03:55:00,26.4,24.1,30.44,North,5,0.0,0.0,91,0.00,,,0.00,Wunderground v.1.15,2013-03-09 08:55:00,
2013-03-09 04:00:00,26.3,24.0,30.44,North,5,0.0,0.0,91,0.00,,,0.00,Wunderground v.1.15,2013-03-09 09:00:00,
2013-03-09 04:05:00,26.3,24.0,30.44,North,5,0.0,0.0,91,0.00,,,0.00,Wunderground v.1.15,2013-03-09 09:05:00,
2013-03-09 04:10:00,26.2,23.9,30.44,North,5,0.0,0.0,91,0.00,,,0.00,Wunderground v.1.15,2013-03-09 09:10:00,
2013-03-09 04:15:00,26.2,23.9,30.44,North,5,0.0,0.0,91,0.00,,,0.00,Wunderground v.1.15,2013-03-09 09:15:00,
2013-03-09 04:20:00,26.1,23.8,30.44,North,5,0.0,0.0,91,0.00,,,0.00,Wunderground v.1.15,2013-03-09 09:20:00,
2013-03-09 04:25:00,26.1,23.8,30.44,North,5,0.0,0.0,91,0.00,,,0.00,Wunderground v.1.15,2013-03-09 09:25:00,
2013-03-09 04:30:00,26.0,23.7,30.44,North,5,0.0,0.0,91,0.00,,,0.00,Wunderground v.1.15,2013-03-09 09:30:00,
2013-03-09 04:35:00,25.9,23.6,30.44,North,5,0.0,0.0,91,0.00,,,0.00,Wunderground v.1.15,2013-03-09 09:35:00,
2013-03-09 04:40:00,25.9,23.6,30.44,North,5,0.0,0.0,91,0.00,,,0.00,Wunderground v.1.15,2013-03-09 09:40:00,
2013-03-09 04:45:00,25.8,23.5,30.44,North,5,0.0,0.0,91,0.00,,,0.00,Wunderground v.1.15,2013-03-09 09:45:00,
2013-03-09 04:50:00,25.7,23.4,30.44,North,5,0.0,0.0,91,0.00,,,0.00,Wunderground v.1.15,2013-03-09 09:50:00,
2013-03-09 04:55:00,25.6,23.6,30.45,North,5,0.0,0.0,92,0.00,,,0.00,Wunderground v.1.15,2013-03-09 09:55:00,
2013-03-09 05:00:00,25.5,23.5,30.45,North,5,0.0,0.0,92,0.00,,,0.00,Wunderground v.1.15,2013-03-09 10:00:00,
2013-03-09 05:05:00,25.4,23.4,30.45,North,5,0.0,0.0,92,0.00,,,0.00,Wunderground v.1.15,2013-03-09 10:05:00,
2013-03-09 05:10:00,25.3,23.3,30.45,North,5,0.0,0.0,92,0.00,,,0.00,Wunderground v.1.15,2013-03-09 10:10:00,
2013-03-09 05:15:00,25.2,23.2,30.44,North,5,0.0,0.0,92,0.00,,,0.00,Wunderground v.1.15,2013-03-09 10:15:00,
2013-03-09 05:20:00,25.1,23.1,30.44,North,5,0.0,0.0,92,0.00,,,0.00,Wunderground v.1.15,2013-03-09 10:20:00,
2013-03-09 05:25:00,25.1,23.4,30.44,North,5,0.0,0.0,93,0.00,,,0.00,Wunderground v.1.15,2013-03-09 10:25:00,
2013-03-09 05:30:00,25.0,23.3,30.45,North,5,0.0,0.0,93,0.00,,,0.00,Wunderground v.1.15,2013-03-09 10:30:00,
2013-03-09 05:35:00,24.9,23.2,30.45,North,5,0.0,0.0,93,0.00,,,0.00,Wunderground v.1.15,2013-03-09 10:35:00,
2013-03-09 05:40:00,24.8,23.1,30.45,North,5,0.0,0.0,93,0.00,,,0.00,Wunderground v.1.15,2013-03-09 10:40:00,
2013-03-09 05:45:00,24.7,23.0,30.44,North,5,0.0,0.0,93,0.00,,,0.00,Wunderground v.1.15,2013-03-09 10:45:00,
2013-03-09 05:50:00,24.6,22.9,30.44,North,5,0.0,0.0,93,0.00,,,0.00,Wunderground v.1.15,2013-03-09 10:50:00,
2013-03-09 05:55:00,24.6,23.1,30.44,North,5,0.0,0.0,94,0.00,,,0.00,Wunderground v.1.15,2013-03-09 10:55:00,
2013-03-09 06:00:00,24.5,23.0,30.45,North,5,0.0,0.0,94,0.00,,,0.00,Wunderground v.1.15,2013-03-09 11:00:00,
2013-03-09 06:05:00,24.4,22.9,30.44,North,5,0.0,0.0,94,0.00,,,0.00,Wunderground v.1.15,2013-03-09 11:05:00,
2013-03-09 06:10:00,24.4,22.9,30.44,North,5,0.0,0.0,94,0.00,,,0.00,Wunderground v.1.15,2013-03-09 11:10:00,
2013-03-09 06:15:00,24.3,22.8,30.44,North,5,0.0,0.0,94,0.00,,,0.00,Wunderground v.1.15,2013-03-09 11:15:00,
2013-03-09 06:20:00,24.2,22.7,30.45,North,5,0.0,0.0,94,0.00,,,0.00,Wunderground v.1.15,2013-03-09 11:20:00,
2013-03-09 06:25:00,24.1,22.6,30.45,North,5,0.0,0.0,94,0.00,,,0.00,Wunderground v.1.15,2013-03-09 11:25:00,
2013-03-09 06:30:00,24.1,22.6,30.45,North,5,0.0,0.0,94,0.00,,,0.00,Wunderground v.1.15,2013-03-09 11:30:00,
2013-03-09 06:35:00,24.0,22.5,30.46,North,5,0.0,0.0,94,0.00,,,0.00,Wunderground v.1.15,2013-03-09 11:35:00,
2013-03-09 06:40:00,23.9,22.4,30.46,North,5,0.0,0.0,94,0.00,,,0.00,Wunderground v.1.15,2013-03-09 11:40:00,
2013-03-09 06:45:00,23.9,22.4,30.46,North,5,0.0,0.0,94,0.00,,,0.00,Wunderground v.1.15,2013-03-09 11:45:00,
2013-03-09 06:50:00,23.9,22.4,30.46,North,5,0.0,0.0,94,0.00,,,0.00,Wunderground v.1.15,2013-03-09 11:50:00,
2013-03-09 06:56:00,23.9,22.4,30.46,North,5,0.0,0.0,94,0.00,,,0.00,Wunderground v.1.15,2013-03-09 11:56:00,
2013-03-09 07:01:00,23.9,22.7,30.46,North,5,0.0,0.0,95,0.00,,,0.00,Wunderground v.1.15,2013-03-09 12:01:00,
2013-03-09 07:06:00,24.0,22.8,30.46,North,5,0.0,0.0,95,0.00,,,0.00,Wunderground v.1.15,2013-03-09 12:06:00,
2013-03-09 07:11:00,24.0,23.0,30.47,North,5,0.0,0.0,96,0.00,,,0.00,Wunderground v.1.15,2013-03-09 12:11:00,
2013-03-09 07:16:00,24.1,23.1,30.47,North,5,0.0,0.0,96,0.00,,,0.00,Wunderground v.1.15,2013-03-09 12:16:00,
2013-03-09 07:21:00,24.2,23.2,30.47,North,5,0.0,0.0,96,0.00,,,0.00,Wunderground v.1.15,2013-03-09 12:21:00,
2013-03-09 07:26:00,24.5,23.5,30.46,North,5,0.0,0.0,96,0.00,,,0.00,Wunderground v.1.15,2013-03-09 12:26:00,
2013-03-09 07:31:00,24.6,23.9,30.47,North,5,0.0,0.0,97,0.00,,,0.00,Wunderground v.1.15,2013-03-09 12:31:00,
2013-03-09 07:36:00,24.9,24.2,30.47,North,5,0.0,0.0,97,0.00,,,0.00,Wunderground v.1.15,2013-03-09 12:36:00,
2013-03-09 07:41:00,25.2,24.5,30.47,North,5,0.0,0.0,97,0.00,,,0.00,Wunderground v.1.15,2013-03-09 12:41:00,
2013-03-09 07:46:00,25.5,24.8,30.47,North,5,0.0,0.0,97,0.00,,,0.00,Wunderground v.1.15,2013-03-09 12:46:00,
2013-03-09 07:51:00,25.8,25.1,30.47,North,5,0.0,0.0,97,0.00,,,0.00,Wunderground v.1.15,2013-03-09 12:51:00,
2013-03-09 07:56:00,26.1,25.4,30.47,North,5,0.0,1.0,97,0.00,,,0.00,Wunderground v.1.15,2013-03-09 12:56:00,
2013-03-09 08:01:00,26.5,25.5,30.48,North,5,0.0,0.0,96,0.00,,,0.00,Wunderground v.1.15,2013-03-09 13:01:00,
2013-03-09 08:06:00,27.0,25.8,30.48,North,5,0.0,0.0,95,0.00,,,0.00,Wunderground v.1.15,2013-03-09 13:06:00,
2013-03-09 08:11:00,27.4,26.2,30.48,North,5,0.0,0.0,95,0.00,,,0.00,Wunderground v.1.15,2013-03-09 13:11:00,
2013-03-09 08:16:00,27.9,26.4,30.48,North,5,0.0,0.0,94,0.00,,,0.00,Wunderground v.1.15,2013-03-09 13:16:00,
2013-03-09 08:21:00,28.3,26.5,30.49,North,5,0.0,0.0,93,0.00,,,0.00,Wunderground v.1.15,2013-03-09 13:21:00,
2013-03-09 08:26:00,28.8,26.8,30.49,North,5,0.0,0.0,92,0.00,,,0.00,Wunderground v.1.15,2013-03-09 13:26:00,
2013-03-09 08:31:00,29.2,27.2,30.49,North,5,0.0,0.0,92,0.00,,,0.00,Wunderground v.1.15,2013-03-09 13:31:00,
2013-03-09 08:36:00,29.8,27.2,30.49,North,5,0.0,1.0,90,0.00,,,0.00,Wunderground v.1.15,2013-03-09 13:36:00,
2013-03-09 08:41:00,30.3,27.4,30.49,North,5,0.0,0.0,89,0.00,,,0.00,Wunderground v.1.15,2013-03-09 13:41:00,
2013-03-09 08:46:00,31.1,27.1,30.49,North,5,0.0,1.0,85,0.00,,,0.00,Wunderground v.1.15,2013-03-09 13:46:00,
2013-03-09 08:51:00,31.7,27.4,30.49,North,5,0.0,1.0,84,0.00,,,0.00,Wunderground v.1.15,2013-03-09 13:51:00,
2013-03-09 08:56:00,32.2,27.9,30.49,North,5,0.0,1.0,84,0.00,,,0.00,Wunderground v.1.15,2013-03-09 13:56:00,
2013-03-09 09:01:00,32.8,27.6,30.50,North,5,0.0,1.0,81,0.00,,,0.00,Wunderground v.1.15,2013-03-09 14:01:00,
2013-03-09 09:06:00,33.3,28.1,30.50,North,5,0.0,1.0,81,0.00,,,0.00,Wunderground v.1.15,2013-03-09 14:06:00,
2013-03-09 09:11:00,34.0,28.5,30.50,North,5,0.0,0.0,80,0.00,,,0.00,Wunderground v.1.15,2013-03-09 14:11:00,
2013-03-09 09:16:00,34.5,27.1,30.49,North,5,0.0,0.0,74,0.00,,,0.00,Wunderground v.1.15,2013-03-09 14:16:00,
2013-03-09 09:21:00,35.1,27.6,30.49,North,5,0.0,0.0,74,0.00,,,0.00,Wunderground v.1.15,2013-03-09 14:21:00,
2013-03-09 09:26:00,35.7,27.6,30.49,North,5,0.0,0.0,72,0.00,,,0.00,Wunderground v.1.15,2013-03-09 14:26:00,
2013-03-09 09:31:00,36.2,28.4,30.48,North,5,0.0,1.0,73,0.00,,,0.00,Wunderground v.1.15,2013-03-09 14:31:00,
2013-03-09 09:36:00,36.8,29.0,30.48,North,5,0.0,1.0,73,0.00,,,0.00,Wunderground v.1.15,2013-03-09 14:36:00,
2013-03-09 09:41:00,37.4,29.2,30.48,South,173,0.0,2.0,72,0.00,,,0.00,Wunderground v.1.15,2013-03-09 14:41:00,
2013-03-09 09:46:00,38.0,29.4,30.48,SE,142,0.0,3.0,71,0.00,,,0.00,Wunderground v.1.15,2013-03-09 14:46:00,
2013-03-09 09:52:00,38.7,30.1,30.48,SSE,167,0.0,2.0,71,0.00,,,0.00,Wunderground v.1.15,2013-03-09 14:52:00,
2013-03-09 09:57:00,39.3,30.3,30.48,South,169,0.0,2.0,70,0.00,,,0.00,Wunderground v.1.15,2013-03-09 14:57:00,
2013-03-09 10:02:00,39.9,31.3,30.48,South,169,0.0,1.0,71,0.00,,,0.00,Wunderground v.1.15,2013-03-09 15:02:00,
2013-03-09 10:07:00,40.5,31.1,30.48,South,169,0.0,1.0,69,0.00,,,0.00,Wunderground v.1.15,2013-03-09 15:07:00,
2013-03-09 10:12:00,41.2,32.2,30.48,South,169,0.0,1.0,70,0.00,,,0.00,Wunderground v.1.15,2013-03-09 15:12:00,
2013-03-09 10:17:00,41.8,31.6,30.48,South,169,0.0,1.0,67,0.00,,,0.00,Wunderground v.1.15,2013-03-09 15:17:00,
2013-03-09 10:22:00,42.3,31.7,30.48,SSE,163,0.0,1.0,66,0.00,,,0.00,Wunderground v.1.15,2013-03-09 15:22:00,
2013-03-09 10:27:00,43.0,32.0,30.48,SSE,166,2.0,3.0,65,0.00,,,0.00,Wunderground v.1.15,2013-03-09 15:27:00,
2013-03-09 10:32:00,43.8,32.8,30.47,South,184,0.0,1.0,65,0.00,,,0.00,Wunderground v.1.15,2013-03-09 15:32:00,
2013-03-09 10:37:00,44.8,33.0,30.48,NNW,344,0.0,2.0,63,0.00,,,0.00,Wunderground v.1.15,2013-03-09 15:37:00,
2013-03-09 10:42:00,45.6,32.9,30.47,SSW,198,1.0,1.0,61,0.00,,,0.00,Wunderground v.1.15,2013-03-09 15:42:00,
2013-03-09 10:47:00,46.2,31.8,30.47,SSE,153,1.0,5.0,57,0.00,,,0.00,Wunderground v.1.15,2013-03-09 15:47:00,
2013-03-09 10:52:00,47.1,33.5,30.48,WSW,237,0.0,2.0,59,0.00,,,0.00,Wunderground v.1.15,2013-03-09 15:52:00,
2013-03-09 10:57:00,47.9,33.4,30.47,SSE,157,1.0,5.0,57,0.00,,,0.00,Wunderground v.1.15,2013-03-09 15:57:00,
2013-03-09 11:02:00,48.6,32.2,30.47,SSE,150,0.0,4.0,53,0.00,,,0.00,Wunderground v.1.15,2013-03-09 16:02:00,
2013-03-09 11:07:00,49.3,32.4,30.47,SSE,163,0.0,5.0,52,0.00,,,0.00,Wunderground v.1.15,2013-03-09 16:07:00,
2013-03-09 11:12:00,49.7,32.8,30.47,SSE,163,0.0,2.0,52,0.00,,,0.00,Wunderground v.1.15,2013-03-09 16:12:00,
2013-03-09 11:17:00,50.3,33.3,30.47,SSE,161,2.0,5.0,52,0.00,,,0.00,Wunderground v.1.15,2013-03-09 16:17:00,
2013-03-09 11:22:00,50.6,32.6,30.48,South,175,3.0,3.0,50,0.00,,,0.00,Wunderground v.1.15,2013-03-09 16:22:00,
2013-03-09 11:27:00,50.6,32.6,30.47,SW,220,1.0,3.0,50,0.00,,,0.00,Wunderground v.1.15,2013-03-09 16:27:00,
2013-03-09 11:32:00,50.8,32.8,30.47,SSE,161,5.0,9.0,50,0.00,,,0.00,Wunderground v.1.15,2013-03-09 16:32:00,
2013-03-09 11:37:00,51.1,33.6,30.47,South,169,0.0,9.0,51,0.00,,,0.00,Wunderground v.1.15,2013-03-09 16:37:00,
2013-03-09 11:42:00,51.5,34.0,30.47,SSE,167,4.0,4.0,51,0.00,,,0.00,Wunderground v.1.15,2013-03-09 16:42:00,
2013-03-09 11:47:00,51.9,35.3,30.46,SSE,161,0.0,4.0,53,0.00,,,0.00,Wunderground v.1.15,2013-03-09 16:47:00,
2013-03-09 11:52:00,52.2,34.1,30.46,ESE,114,1.0,2.0,50,0.00,,,0.00,Wunderground v.1.15,2013-03-09 16:52:00,
2013-03-09 11:57:00,52.5,33.9,30.46,SSE,164,2.0,7.0,49,0.00,,,0.00,Wunderground v.1.15,2013-03-09 16:57:00,
2013-03-09 12:02:00,52.7,34.6,30.45,SSE,164,1.0,1.0,50,0.00,,,0.00,Wunderground v.1.15,2013-03-09 17:02:00,
2013-03-09 12:07:00,52.9,34.2,30.45,South,169,0.0,2.0,49,0.00,,,0.00,Wunderground v.1.15,2013-03-09 17:07:00,
2013-03-09 12:12:00,53.2,35.0,30.45,South,180,1.0,2.0,50,0.00,,,0.00,Wunderground v.1.15,2013-03-09 17:12:00,
2013-03-09 12:17:00,53.5,34.3,30.45,SSE,163,2.0,9.0,48,0.00,,,0.00,Wunderground v.1.15,2013-03-09 17:17:00,
2013-03-09 12:22:00,53.8,34.6,30.45,SSE,161,0.0,2.0,48,0.00,,,0.00,Wunderground v.1.15,2013-03-09 17:22:00,
2013-03-09 12:27:00,54.1,34.8,30.45,SSE,159,6.0,7.0,48,0.00,,,0.00,Wunderground v.1.15,2013-03-09 17:27:00,
2013-03-09 12:32:00,54.5,35.2,30.45,SSW,205,1.0,4.0,48,0.00,,,0.00,Wunderground v.1.15,2013-03-09 17:32:00,
2013-03-09 12:37:00,54.8,34.9,30.44,WNW,293,0.0,7.0,47,0.00,,,0.00,Wunderground v.1.15,2013-03-09 17:37:00,
2013-03-09 12:42:00,54.9,34.5,30.44,SE,138,0.0,2.0,46,0.00,,,0.00,Wunderground v.1.15,2013-03-09 17:42:00,
2013-03-09 12:47:00,55.1,34.7,30.44,South,187,0.0,6.0,46,0.00,,,0.00,Wunderground v.1.15,2013-03-09 17:47:00,
2013-03-09 12:52:00,55.4,35.5,30.44,South,187,1.0,1.0,47,0.00,,,0.00,Wunderground v.1.15,2013-03-09 17:52:00,
2013-03-09 12:57:00,55.8,35.9,30.44,South,185,1.0,2.0,47,0.00,,,0.00,Wunderground v.1.15,2013-03-09 17:57:00,
2013-03-09 13:02:00,56.2,35.7,30.43,South,169,0.0,3.0,46,0.00,,,0.00,Wunderground v.1.15,2013-03-09 18:02:00,
2013-03-09 13:07:00,56.5,35.4,30.43,SSE,150,1.0,3.0,45,0.00,,,0.00,Wunderground v.1.15,2013-03-09 18:07:00,
2013-03-09 13:12:00,56.4,35.3,30.43,SSE,152,0.0,2.0,45,0.00,,,0.00,Wunderground v.1.15,2013-03-09 18:12:00,
2013-03-09 13:17:00,56.7,35.6,30.43,SSE,163,0.0,3.0,45,0.00,,,0.00,Wunderground v.1.15,2013-03-09 18:17:00,
2013-03-09 13:22:00,57.0,35.9,30.43,SSE,166,0.0,6.0,45,0.00,,,0.00,Wunderground v.1.15,2013-03-09 18:22:00,
2013-03-09 13:27:00,57.3,36.1,30.42,ENE,64,0.0,6.0,45,0.00,,,0.00,Wunderground v.1.15,2013-03-09 18:27:00,
2013-03-09 13:32:00,57.5,35.7,30.42,SSE,163,1.0,2.0,44,0.00,,,0.00,Wunderground v.1.15,2013-03-09 18:32:00,
2013-03-09 13:37:00,57.8,36.0,30.41,SSE,163,0.0,2.0,44,0.00,,,0.00,Wunderground v.1.15,2013-03-09 18:37:00,
2013-03-09 13:42:00,58.3,36.5,30.41,SSE,168,2.0,5.0,44,0.00,,,0.00,Wunderground v.1.15,2013-03-09 18:42:00,
2013-03-09 13:48:00,58.4,36.0,30.41,South,170,0.0,7.0,43,0.00,,,0.00,Wunderground v.1.15,2013-03-09 18:48:00,
2013-03-09 13:53:00,58.6,36.2,30.41,NNE,17,1.0,2.0,43,0.00,,,0.00,Wunderground v.1.15,2013-03-09 18:53:00,
2013-03-09 13:58:00,58.8,36.3,30.40,NNE,13,0.0,3.0,43,0.00,,,0.00,Wunderground v.1.15,2013-03-09 18:58:00,
2013-03-09 14:03:00,58.8,35.7,30.40,South,176,1.0,6.0,42,0.00,,,0.00,Wunderground v.1.15,2013-03-09 19:03:00,
2013-03-09 14:08:00,59.0,36.5,30.40,South,179,0.0,11.0,43,0.00,,,0.00,Wunderground v.1.15,2013-03-09 19:08:00,
2013-03-09 14:13:00,59.3,36.8,30.40,SE,131,4.0,5.0,43,0.00,,,0.00,Wunderground v.1.15,2013-03-09 19:13:00,
2013-03-09 14:18:00,59.6,37.1,30.40,SE,132,1.0,5.0,43,0.00,,,0.00,Wunderground v.1.15,2013-03-09 19:18:00,
2013-03-09 14:23:00,59.9,36.1,30.40,South,170,0.0,4.0,41,0.00,,,0.00,Wunderground v.1.15,2013-03-09 19:23:00,
2013-03-09 14:28:00,60.0,36.2,30.39,South,172,2.0,4.0,41,0.00,,,0.00,Wunderground v.1.15,2013-03-09 19:28:00,
2013-03-09 14:33:00,60.1,36.3,30.39,South,175,2.0,4.0,41,0.00,,,0.00,Wunderground v.1.15,2013-03-09 19:33:00,
2013-03-09 14:38:00,60.3,35.9,30.38,East,101,1.0,4.0,40,0.00,,,0.00,Wunderground v.1.15,2013-03-09 19:38:00,
2013-03-09 14:43:00,60.5,36.7,30.38,North,355,0.0,3.0,41,0.00,,,0.00,Wunderground v.1.15,2013-03-09 19:43:00,
2013-03-09 14:48:00,60.5,36.0,30.38,WSW,238,1.0,3.0,40,0.00,,,0.00,Wunderground v.1.15,2013-03-09 19:48:00,
2013-03-09 14:53:00,60.5,35.4,30.37,SSE,164,0.0,5.0,39,0.00,,,0.00,Wunderground v.1.15,2013-03-09 19:53:00,
2013-03-09 14:58:00,60.7,36.2,30.38,SSE,155,0.0,6.0,40,0.00,,,0.00,Wunderground v.1.15,2013-03-09 19:58:00,
2013-03-09 15:03:00,60.9,36.4,30.37,SSE,167,1.0,4.0,40,0.00,,,0.00,Wunderground v.1.15,2013-03-09 20:03:00,
2013-03-09 15:08:00,60.9,35.8,30.37,SSW,197,3.0,11.0,39,0.00,,,0.00,Wunderground v.1.15,2013-03-09 20:08:00,
2013-03-09 15:13:00,60.8,36.3,30.37,South,171,2.0,5.0,40,0.00,,,0.00,Wunderground v.1.15,2013-03-09 20:13:00,
2013-03-09 15:18:00,60.7,36.2,30.37,SSE,166,3.0,5.0,40,0.00,,,0.00,Wunderground v.1.15,2013-03-09 20:18:00,
2013-03-09 15:23:00,60.7,36.2,30.37,ESE,114,3.0,6.0,40,0.00,,,0.00,Wunderground v.1.15,2013-03-09 20:23:00,
2013-03-09 15:28:00,60.7,36.2,30.37,NW,314,0.0,6.0,40,0.00,,,0.00,Wunderground v.1.15,2013-03-09 20:28:00,
2013-03-09 15:33:00,60.7,36.2,30.37,SE,130,2.0,5.0,40,0.00,,,0.00,Wunderground v.1.15,2013-03-09 20:33:00,
2013-03-09 15:38:00,60.8,35.7,30.37,SE,145,2.0,5.0,39,0.00,,,0.00,Wunderground v.1.15,2013-03-09 20:38:00,
2013-03-09 15:43:00,60.7,36.2,30.37,SSE,151,2.0,4.0,40,0.00,,,0.00,Wunderground v.1.15,2013-03-09 20:43:00,
2013-03-09 15:48:00,60.6,36.8,30.37,SSE,162,0.0,4.0,41,0.00,,,0.00,Wunderground v.1.15,2013-03-09 20:48:00,
2013-03-09 15:54:00,60.5,36.7,30.37,South,180,1.0,6.0,41,0.00,,,0.00,Wunderground v.1.15,2013-03-09 20:54:00,
2013-03-09 15:59:00,60.4,36.6,30.37,SSE,154,3.0,8.0,41,0.00,,,0.00,Wunderground v.1.15,2013-03-09 20:59:00,
2013-03-09 16:04:00,60.3,36.5,30.37,SSE,161,0.0,6.0,41,0.00,,,0.00,Wunderground v.1.15,2013-03-09 21:04:00,
2013-03-09 16:09:00,60.1,36.9,30.37,SSW,192,0.0,6.0,42,0.00,,,0.00,Wunderground v.1.15,2013-03-09 21:09:00,
2013-03-09 16:14:00,59.8,36.6,30.37,South,180,2.0,5.0,42,0.00,,,0.00,Wunderground v.1.15,2013-03-09 21:14:00,
2013-03-09 16:19:00,59.6,36.5,30.37,SSW,196,2.0,10.0,42,0.00,,,0.00,Wunderground v.1.15,2013-03-09 21:19:00,
2013-03-09 16:24:00,59.4,36.3,30.37,South,169,11.0,11.0,42,0.00,,,0.00,Wunderground v.1.15,2013-03-09 21:24:00,
2013-03-09 16:29:00,59.4,36.9,30.37,South,169,5.0,11.0,43,0.00,,,0.00,Wunderground v.1.15,2013-03-09 21:29:00,
2013-03-09 16:34:00,59.4,36.3,30.37,SSE,166,2.0,5.0,42,0.00,,,0.00,Wunderground v.1.15,2013-03-09 21:34:00,
2013-03-09 16:39:00,59.2,36.7,30.36,South,186,3.0,5.0,43,0.00,,,0.00,Wunderground v.1.15,2013-03-09 21:39:00,
2013-03-09 16:44:00,59.1,36.6,30.37,SSW,200,0.0,4.0,43,0.00,,,0.00,Wunderground v.1.15,2013-03-09 21:44:00,
2013-03-09 16:49:00,59.1,36.6,30.37,South,171,4.0,7.0,43,0.00,,,0.00,Wunderground v.1.15,2013-03-09 21:49:00,
2013-03-09 16:54:00,59.1,36.6,30.37,SE,144,1.0,7.0,43,0.00,,,0.00,Wunderground v.1.15,2013-03-09 21:54:00,
2013-03-09 16:59:00,58.9,36.4,30.36,SSE,163,1.0,7.0,43,0.00,,,0.00,Wunderground v.1.15,2013-03-09 21:59:00,
2013-03-09 17:04:00,58.8,36.3,30.37,SSE,165,2.0,3.0,43,0.00,,,0.00,Wunderground v.1.15,2013-03-09 22:04:00,
2013-03-09 17:09:00,58.8,36.3,30.37,SE,143,0.0,3.0,43,0.00,,,0.00,Wunderground v.1.15,2013-03-09 22:09:00,
2013-03-09 17:14:00,58.5,36.6,30.36,WSW,240,0.0,4.0,44,0.00,,,0.00,Wunderground v.1.15,2013-03-09 22:14:00,
2013-03-09 17:19:00,58.1,36.3,30.37,South,178,1.0,4.0,44,0.00,,,0.00,Wunderground v.1.15,2013-03-09 22:19:00,
2013-03-09 17:24:00,57.9,36.1,30.36,South,175,1.0,3.0,44,0.00,,,0.00,Wunderground v.1.15,2013-03-09 22:24:00,
2013-03-09 17:29:00,57.7,35.9,30.37,South,182,0.0,6.0,44,0.00,,,0.00,Wunderground v.1.15,2013-03-09 22:29:00,
2013-03-09 17:34:00,57.5,36.3,30.37,South,181,1.0,2.0,45,0.00,,,0.00,Wunderground v.1.15,2013-03-09 22:34:00,
2013-03-09 17:39:00,57.3,36.1,30.37,South,170,0.0,4.0,45,0.00,,,0.00,Wunderground v.1.15,2013-03-09 22:39:00,
2013-03-09 17:44:00,57.1,35.9,30.37,South,173,0.0,1.0,45,0.00,,,0.00,Wunderground v.1.15,2013-03-09 22:44:00,
2013-03-09 17:49:00,56.8,36.2,30.37,South,175,0.0,1.0,46,0.00,,,0.00,Wunderground v.1.15,2013-03-09 22:49:00,
2013-03-09 17:54:00,56.6,36.0,30.37,South,175,1.0,1.0,46,0.00,,,0.00,Wunderground v.1.15,2013-03-09 22:54:00,
2013-03-09 17:59:00,56.4,35.9,30.37,South,185,0.0,3.0,46,0.00,,,0.00,Wunderground v.1.15,2013-03-09 22:59:00,
2013-03-09 18:04:00,56.2,35.7,30.37,South,185,1.0,1.0,46,0.00,,,0.00,Wunderground v.1.15,2013-03-09 23:04:00,
2013-03-09 18:09:00,56.0,34.9,30.36,South,185,0.0,2.0,45,0.00,,,0.00,Wunderground v.1.15,2013-03-09 23:09:00,
2013-03-09 18:14:00,55.8,35.3,30.37,South,185,0.0,1.0,46,0.00,,,0.00,Wunderground v.1.15,2013-03-09 23:14:00,
2013-03-09 18:19:00,55.7,35.2,30.37,South,185,0.0,1.0,46,0.00,,,0.00,Wunderground v.1.15,2013-03-09 23:19:00,
2013-03-09 18:24:00,55.5,35.6,30.37,South,185,0.0,1.0,47,0.00,,,0.00,Wunderground v.1.15,2013-03-09 23:24:00,
2013-03-09 18:29:00,55.2,34.8,30.38,South,185,0.0,1.0,46,0.00,,,0.00,Wunderground v.1.15,2013-03-09 23:29:00,
2013-03-09 18:34:00,55.0,34.6,30.38,South,185,0.0,1.0,46,0.00,,,0.00,Wunderground v.1.15,2013-03-09 23:34:00,
2013-03-09 18:39:00,54.8,34.4,30.38,South,184,1.0,3.0,46,0.00,,,0.00,Wunderground v.1.15,2013-03-09 23:39:00,
2013-03-09 18:44:00,54.7,34.8,30.38,South,184,0.0,2.0,47,0.00,,,0.00,Wunderground v.1.15,2013-03-09 23:44:00,
2013-03-09 18:49:00,54.5,34.7,30.38,South,184,0.0,2.0,47,0.00,,,0.00,Wunderground v.1.15,2013-03-09 23:49:00,
2013-03-09 18:54:00,54.2,34.4,30.38,SW,221,0.0,2.0,47,0.00,,,0.00,Wunderground v.1.15,2013-03-09 23:54:00,
2013-03-09 18:59:00,54.0,34.2,30.38,SSE,161,0.0,3.0,47,0.00,,,0.00,Wunderground v.1.15,2013-03-09 23:59:00,
2013-03-09 19:04:00,53.8,34.0,30.38,SSE,161,0.0,2.0,47,0.00,,,0.00,Wunderground v.1.15,2013-03-10 00:04:00,
2013-03-09 19:09:00,53.6,34.4,30.38,SSE,161,0.0,2.0,48,0.00,,,0.00,Wunderground v.1.15,2013-03-10 00:09:00,
2013-03-09 19:14:00,53.4,34.2,30.38,SSE,161,0.0,0.0,48,0.00,,,0.00,Wunderground v.1.15,2013-03-10 00:14:00,
2013-03-09 19:19:00,53.1,33.9,30.38,SSE,161,0.0,1.0,48,0.00,,,0.00,Wunderground v.1.15,2013-03-10 00:19:00,
2013-03-09 19:24:00,53.0,33.8,30.39,SSE,161,1.0,1.0,48,0.00,,,0.00,Wunderground v.1.15,2013-03-10 00:24:00,
2013-03-09 19:29:00,52.8,33.6,30.39,SSE,161,1.0,1.0,48,0.00,,,0.00,Wunderground v.1.15,2013-03-10 00:29:00,
2013-03-09 19:35:00,52.7,34.1,30.39,SSE,161,0.0,1.0,49,0.00,,,0.00,Wunderground v.1.15,2013-03-10 00:35:00,
2013-03-09 19:40:00,52.5,33.9,30.39,SSE,161,0.0,0.0,49,0.00,,,0.00,Wunderground v.1.15,2013-03-10 00:40:00,
2013-03-09 19:45:00,52.3,34.2,30.39,SSE,161,0.0,0.0,50,0.00,,,0.00,Wunderground v.1.15,2013-03-10 00:45:00,
2013-03-09 19:50:00,52.1,34.0,30.39,SSE,161,0.0,0.0,50,0.00,,,0.00,Wunderground v.1.15,2013-03-10 00:50:00,
2013-03-09 19:55:00,51.9,33.8,30.39,SSE,161,0.0,0.0,50,0.00,,,0.00,Wunderground v.1.15,2013-03-10 00:55:00,
2013-03-09 20:00:00,51.7,34.6,30.39,SSE,161,0.0,0.0,52,0.00,,,0.00,Wunderground v.1.15,2013-03-10 01:00:00,
2013-03-09 20:05:00,51.6,34.5,30.39,SSE,161,0.0,0.0,52,0.00,,,0.00,Wunderground v.1.15,2013-03-10 01:05:00,
2013-03-09 20:10:00,51.4,33.9,30.39,SSE,161,0.0,0.0,51,0.00,,,0.00,Wunderground v.1.15,2013-03-10 01:10:00,
2013-03-09 20:15:00,51.3,33.8,30.38,SSE,161,0.0,1.0,51,0.00,,,0.00,Wunderground v.1.15,2013-03-10 01:15:00,
2013-03-09 20:20:00,51.3,33.8,30.39,SSE,161,0.0,1.0,51,0.00,,,0.00,Wunderground v.1.15,2013-03-10 01:20:00,
2013-03-09 20:25:00,51.4,33.9,30.39,SSE,161,0.0,1.0,51,0.00,,,0.00,Wunderground v.1.15,2013-03-10 01:25:00,
2013-03-09 20:30:00,51.5,34.0,30.39,SSE,161,1.0,2.0,51,0.00,,,0.00,Wunderground v.1.15,2013-03-10 01:30:00,
2013-03-09 20:35:00,51.5,34.0,30.39,SSE,161,0.0,2.0,51,0.00,,,0.00,Wunderground v.1.15,2013-03-10 01:35:00,
2013-03-09 20:40:00,51.6,34.5,30.39,South,169,0.0,0.0,52,0.00,,,0.00,Wunderground v.1.15,2013-03-10 01:40:00,
2013-03-09 20:45:00,51.5,34.0,30.39,South,169,2.0,2.0,51,0.00,,,0.00,Wunderground v.1.15,2013-03-10 01:45:00,
2013-03-09 20:50:00,51.5,34.4,30.39,South,184,1.0,3.0,52,0.00,,,0.00,Wunderground v.1.15,2013-03-10 01:50:00,
2013-03-09 20:55:00,51.5,34.0,30.39,South,184,0.0,3.0,51,0.00,,,0.00,Wunderground v.1.15,2013-03-10 01:55:00,
2013-03-09 21:00:00,51.5,34.0,30.39,South,184,0.0,1.0,51,0.00,,,0.00,Wunderground v.1.15,2013-03-10 02:00:00,
2013-03-09 21:05:00,51.5,34.0,30.39,South,184,1.0,1.0,51,0.00,,,0.00,Wunderground v.1.15,2013-03-10 02:05:00,
2013-03-09 21:10:00,51.5,34.4,30.40,South,184,0.0,0.0,52,0.00,,,0.00,Wunderground v.1.15,2013-03-10 02:10:00,
2013-03-09 21:16:00,51.5,34.0,30.40,South,184,0.0,2.0,51,0.00,,,0.00,Wunderground v.1.15,2013-03-10 02:16:00,
2013-03-09 21:21:00,51.5,34.4,30.40,South,184,0.0,1.0,52,0.00,,,0.00,Wunderground v.1.15,2013-03-10 02:21:00,
2013-03-09 21:26:00,51.4,34.3,30.40,South,184,0.0,2.0,52,0.00,,,0.00,Wunderground v.1.15,2013-03-10 02:26:00,
2013-03-09 21:31:00,51.3,33.8,30.41,South,183,1.0,2.0,51,0.00,,,0.00,Wunderground v.1.15,2013-03-10 02:31:00,
2013-03-09 21:36:00,51.3,33.8,30.41,South,178,0.0,3.0,51,0.00,,,0.00,Wunderground v.1.15,2013-03-10 02:36:00,
2013-03-09 21:41:00,51.3,33.8,30.41,South,174,1.0,1.0,51,0.00,,,0.00,Wunderground v.1.15,2013-03-10 02:41:00,
2013-03-09 21:46:00,51.3,33.8,30.41,South,173,1.0,3.0,51,0.00,,,0.00,Wunderground v.1.15,2013-03-10 02:46:00,
2013-03-09 21:51:00,51.2,34.2,30.41,South,173,1.0,1.0,52,0.00,,,0.00,Wunderground v.1.15,2013-03-10 02:51:00,
2013-03-09 21:56:00,51.2,34.2,30.41,South,173,0.0,1.0,52,0.00,,,0.00,Wunderground v.1.15,2013-03-10 02:56:00,
2013-03-09 22:01:00,51.0,34.0,30.42,South,173,0.0,0.0,52,0.00,,,0.00,Wunderground v.1.15,2013-03-10 03:01:00,
2013-03-09 22:06:00,50.8,33.8,30.41,South,173,0.0,1.0,52,0.00,,,0.00,Wunderground v.1.15,2013-03-10 03:06:00,
2013-03-09 22:11:00,50.5,34.0,30.41,South,173,0.0,0.0,53,0.00,,,0.00,Wunderground v.1.15,2013-03-10 03:11:00,
2013-03-09 22:16:00,50.2,33.7,30.41,South,173,0.0,1.0,53,0.00,,,0.00,Wunderground v.1.15,2013-03-10 03:16:00,
2013-03-09 22:21:00,49.9,33.9,30.41,South,173,0.0,1.0,54,0.00,,,0.00,Wunderground v.1.15,2013-03-10 03:21:00,
2013-03-09 22:26:00,49.7,33.2,30.41,South,173,0.0,2.0,53,0.00,,,0.00,Wunderground v.1.15,2013-03-10 03:26:00,
2013-03-09 22:31:00,49.6,33.6,30.41,South,173,0.0,1.0,54,0.00,,,0.00,Wunderground v.1.15,2013-03-10 03:31:00,
2013-03-09 22:36:00,49.5,33.5,30.41,South,173,0.0,1.0,54,0.00,,,0.00,Wunderground v.1.15,2013-03-10 03:36:00,
2013-03-09 22:41:00,49.3,33.8,30.40,South,173,0.0,0.0,55,0.00,,,0.00,Wunderground v.1.15,2013-03-10 03:41:00,
2013-03-09 22:46:00,49.0,33.5,30.40,South,173,0.0,0.0,55,0.00,,,0.00,Wunderground v.1.15,2013-03-10 03:46:00,
2013-03-09 22:51:00,48.8,33.3,30.41,South,173,0.0,0.0,55,0.00,,,0.00,Wunderground v.1.15,2013-03-10 03:51:00,
2013-03-09 22:56:00,48.5,33.5,30.40,South,173,0.0,0.0,56,0.00,,,0.00,Wunderground v.1.15,2013-03-10 03:56:00,
2013-03-09 23:01:00,48.2,32.8,30.40,South,173,0.0,0.0,55,0.00,,,0.00,Wunderground v.1.15,2013-03-10 04:01:00,
2013-03-09 23:06:00,47.9,32.9,30.40,South,173,0.0,0.0,56,0.00,,,0.00,Wunderground v.1.15,2013-03-10 04:06:00,
2013-03-09 23:11:00,47.7,32.8,30.40,South,173,0.0,0.0,56,0.00,,,0.00,Wunderground v.1.15,2013-03-10 04:11:00,
2013-03-09 23:16:00,47.5,33.0,30.40,South,173,0.0,0.0,57,0.00,,,0.00,Wunderground v.1.15,2013-03-10 04:16:00,
2013-03-09 23:21:00,47.3,32.8,30.40,South,173,0.0,0.0,57,0.00,,,0.00,Wunderground v.1.15,2013-03-10 04:21:00,
2013-03-09 23:26:00,47.1,32.6,30.40,South,173,0.0,0.0,57,0.00,,,0.00,Wunderground v.1.15,2013-03-10 04:26:00,
2013-03-09 23:31:00,46.9,32.9,30.40,South,173,0.0,0.0,58,0.00,,,0.00,Wunderground v.1.15,2013-03-10 04:31:00,
2013-03-09 23:36:00,46.7,32.7,30.39,South,173,0.0,0.0,58,0.00,,,0.00,Wunderground v.1.15,2013-03-10 04:36:00,
2013-03-09 23:41:00,46.6,33.0,30.39,South,173,0.0,0.0,59,0.00,,,0.00,Wunderground v.1.15,2013-03-10 04:41:00,
2013-03-09 23:46:00,46.4,32.8,30.39,South,173,0.0,0.0,59,0.00,,,0.00,Wunderground v.1.15,2013-03-10 04:46:00,
2013-03-09 23:51:00,46.2,33.1,30.39,South,173,0.0,0.0,60,0.00,,,0.00,Wunderground v.1.15,2013-03-10 04:51:00,
2013-03-09 23:56:00,46.1,33.0,30.39,South,173,0.0,0.0,60,0.00,,,0.00,Wunderground v.1.15,2013-03-10 04:56:00,